Weather in Ziguinchor

Senegal     12°33′37″N   16°14′58″W
temp.,
°C
wind,
m/s
gust,
m/s
humid.,
%
clouds,
%
prec.,
mm/h
press.,
hPa
HPBL,
m
15 april, thu
thu1500:00+24wsw36584 0.0 1012270
03:00+22wsw25710 0.0 1011238
06:00+21ssw23750 0.0 101184
09:00+27w22464 0.0 1012388
12:00+36w222230 0.0 10111104
15:00+39wsw431899 0.0 10072475
18:00+32w662898 0.0 1008704
21:00+25w48595 0.0 1010329
16 april, fri
fri1600:00+24wnw38645 0.0 1011292
03:00+22w24710 0.0 1010163
06:00+21nw2573100 0.0 1010148
09:00+26nnw3445100 0.0 1012442
12:00+34n3420100 0.0 10101080
15:00+39nw331487 0.0 10072290
18:00+31wnw79355 0.0 1007503
21:00+24wnw410622 0.0 1009352
17 april, sat
sat1700:00+23wnw410675 0.0 1010392
03:00+22nw39705 0.0 1009365
06:00+20wnw24778 0.0 1010102
09:00+25n245079 0.0 1012487
12:00+34n33208 0.0 10111144
15:00+39nnw33125 0.0 10072184
18:00+30wnw7835100 0.0 1008497
21:00+24wnw496229 0.0 1010347
18 april, sun
sun1800:00+23wnw377081 0.0 1012347
03:00+21wnw387899 0.0 1010346
06:00+20wnw238598 0.0 101188
09:00+24n3456100 0.0 1013408
12:00+34n3520100 0.0 10111115
15:00+38n3413100 0.0 10082066
18:00+32wnw693290 0.0 1008415
21:00+25wnw41059100 0.0 1010397
19 april, mon
mon1900:00+23wnw3965100 0.0 1011383
03:00+22wnw2572100 0.0 1010219
06:00+22wnw2374100 0.0 101176
09:00+26nw244758 0.0 1012419
12:00+35nnw351957 0.0 10111228
15:00+41n46115 0.0 10072580
18:00+33wnw892816 0.0 1006509
21:00+24wnw41158100 0.0 1009399